SCP
0 0 0 -0 0 -0 0 0 0 0 -0 -0 -0 -0 -0 -0 -0 -0 -0 -0 -0 -0 -0 -0 -0 -0 -0 -0 -0 -0 -0 -0 -0 -0 -0 -0 -0 -0 -0 -0 -0 -0 -0
-0 -0 -0 -0 -0 -0 -0 -0 -0 -0 -0 -0 -0 -0 -0 -0 -0 -0 -0 -0 -0 -0 -0 -0 -0 -0 -0 -0 -0 -0 -0 0 0 -0 -0 -0 -0 -0 -0 -0 -0 -0 -0
-0 -0 0 -0 0 -0 -0 -0 -0 -0 -0 -0 -0 -0 -0 -0 -0 -0 -0 -0 -0 -0 -0 -0 -0 -0 -0 -0 -0 -0 -0 -0 -0 -0 -0 -0 -0 -0 -0 -0 -0 -0 -0
-0 -0 -0 0 -0 -0 -0 -0 -0 -0 -0 -0 -0 -0 -0 -0 -0 -0 -0 -0 -0 -0 -0 -0 -0 -0 -0 -0 -0 -0 -0 -0 -0 -0 -0 -0 -0 -0 -0 -0 -0 -0 -0
-0 -0 -0 -0 -0 -0 -0 -0 -0 -0 -0 -0 -0 -0 -0 -0 -0 -0 -0 -0 -0 -0 -0 -0 -0 -0 -0 -0 -0 -0 -0 -0 -0 -0 -0 -0 -0 -0 -0 -0 -0 -0 -0
0 -0 -0 -0 -0 -0 -0 -0 -0 -0 -0 -0 -0 -0 -0 -0 -0 -0 -0 -0 -0 -0 -0 -0 -0 -0 -0 -0 -0 -0 -0 -0 -0 -0 -0 -0 -0 -0 -0 -0 -0 -0 -0
0 -0 0 -0 -0 -0 -0 -0 -0 -0 -0 -0 -0 -0 -0 -0 -0 -0 -0 -0 -0 -0 -0 -0 -0 -0 -0 -0 -0 -0 -0 -0 -0 -0 -0 -0 -0 -0 -0 -0 -0 -0 -0
-0 -0 -0 -0 -0 -0 -0 -0 -0 -0 -0 -0 -0 -0 -0 -0 -0 -0 -0 -0 -0 -0 -0 -0 -0 -0 -0 -0 -0 -0 -0 -0 -0 -0 0 0 -0 -0 -0 -0 -0 -0 -0
-0 -0 -0 -0 -0 -0 -0 -0 -0 -0 -0 -0 -0 -0 -0 -0 -0 -0 -0 -0 -0 -0 -0 -0 -0 -0 -0 -0 -0 -0 -0 -0 -0 -0 -0 0 -0 -0 -0 -0 -0 -0 -0
-0 -0 -0 -0 -0 -0 -0 -0 -0 -0 -0 -0 -0 -0 -0 -0 -0 -0 -0 -0 -0 -0 -0 -0 -0 -0 -0 -0 -0 -0 -0 -0 0 0 0 0 -0 -0 -0 -0 0 -0 -0
-0 -0 -0 -0 -0 -0 -0 0 -0 -0 -0 -0 -0 -0 -0 -0 -0 -0 -0 -0 -0 -0 -0 -0 -0 -0 -0 -0 -0 -0 -0 0 0 0 0 0 -0 -0 -0 0 0 0 0
-0 -0 -0 -0 -0 -0 0 0 0 0 0 0 0 -0 0 0 0 0 0 -0 -0 -0 -0 -0 -0 0 0 0 0 0 0 0 0 0 0 0 0 0 0 0 0 0 0
-0 0 0 -0 0 0 0 0 0 0 0 0 0 0 0 0 0 0 0 0 0 0 0 0 0 0 0 0 0 0 0 0 0 0 0 0 0 0 0 0 0 0 0
-0 -0 -0 -0 0 0 0 0 0 0 0 0 0 0 0 0 0 0 0 0 0 0 0 0 0 0 0 0 0 0 0 0 0 0 0 0 0 0 0 0 0 0 0
-0 -0 -0 0 0 0 0 0 0 0 0 0 0 0 0 0 0 0 0 0 0 0 0 0 0 0 0 0 0 0 0 0 0 0 0 0 0 0 0 0 0 0 0
-0 -0 0 0 0 0 0 0 0 0 0 0 0 0 0 0 0 0 0 0 0 0 0 0 0 0 0 0 0 0 0 0 0 0 0 0 0 0 0 0 0 0 0
0 -0 0 0 0 0 0 0 0 0 0 0 0 0 0 0 0 0 0 0 0 0 0 0 0 0 0 0 0 0 0 0 0 0 0 0 0 0 0 0 0 0 0
0 0 0 0 0 0 0 0 0 0 0 0 0 0 0 0 0 0 0 0 0 0 0 0 0 0 0 0 0 0 0 0 0 0 0 0 0 0 0 0 0 0 0
0 0 0 0 0 0 0 0 0 0 0 0 0 0 0 0 0 0 0 0 0 0 0 0 0 0 0 0 0 0 0 0 0 0 0 0 0 0 0 0 0 0 0
0 0 0 0 0 0 0 0 0 0 0 0 0 0 0 0 0 0 0 0 0 0 0 0 0 0 0 0 0 0 0 0 0 0 0 0 0 0 0 0 0 0 0
0 0 0 0 0 0 0 0 0 0 0 0 0 0 0 0 0 0 0 0 0 0 0 0 0 0 0 0 0 0 0 0 0 0 0 0 0 0 0 0 0 0 0
0 0 0 0 0 0 0 0 0 0 0 0 0 0 0 0 0 0 0 0 0 0 0 0 0 0 0 0 0 0 0 0 0 0 0 0 0 0 0 0 0 0 0
0 0 0 0 0 0 0 0 0 0 0 0 0 0 0 0 0 0 0 0 0 0 0 0 0 0 0 0 0 0 0 0 0 0 0 0 0 0 0 0 0 0 0
0 0 0 0 0 0 0 0 0 0 0 0 0 0 0 0 0 0 0 0 0 0 0 0 0 0 0 0 0 0 0 0 0 0 0 0 0 0 0 0 0 0 0
0 0 0 0 0 0 0 0 0 0 0 0 0 0 0 0 0 0 0 0 0 0 0 0 0 0 0 0 0 0 0 0 0 0 0 0 0 0 0 0 0 0 0
0 0 0 0 0 0 0 0 0 0 0 0 0 0 0 0 0 0 0 0 0 0 0 0 0 0 0 0 0 0 0 0 0 0 0 0 0 0 0 0 0 0 0
Wind_Speed_500mb
30 42 33 25 32 25 19 12 18 21 23 23 24 27 27 26 26 28 43 36 30 24 21 26 32 33 34 36 38 40 41 43 37 33 30 29 33 33 33 31 34 42 40
40 38 33 27 25 24 21 15 20 21 26 27 26 27 27 27 27 31 41 32 21 23 19 28 31 32 34 39 46 49 52 51 45 39 38 40 41 40 38 38 38 38 35
36 34 32 26 27 25 19 17 19 21 25 27 28 27 26 26 27 30 38 26 19 21 22 30 31 34 40 45 48 54 56 49 38 43 46 47 49 47 47 44 43 45 46
34 32 29 28 27 25 19 17 17 18 22 23 26 26 25 23 24 27 32 26 19 22 29 30 31 35 40 45 47 49 46 36 31 39 47 45 52 51 52 53 56 56 59
27 28 29 27 27 25 21 17 16 17 18 20 25 25 23 22 21 21 22 21 21 26 29 29 32 36 40 46 49 55 44 38 46 56 54 53 50 50 52 51 51 52 52
32 29 28 28 27 25 22 16 15 14 15 18 21 23 23 22 20 20 19 18 21 24 26 28 31 34 39 45 54 49 35 31 46 49 54 57 54 42 39 43 39 40 40
32 27 30 30 28 26 23 18 15 13 14 15 17 19 21 20 19 19 18 20 21 22 24 26 29 31 36 41 49 47 31 31 39 38 40 42 37 38 42 43 54 55 55
36 35 34 34 31 27 23 20 17 14 15 15 14 16 18 19 18 18 17 19 21 22 23 25 27 31 36 38 40 40 29 32 39 45 48 46 45 46 45 47 45 40 45
32 34 38 36 33 28 25 23 20 16 17 15 13 12 15 18 19 20 20 20 20 21 21 23 26 28 30 34 38 39 32 32 46 49 48 47 44 44 39 37 41 43 40
34 29 39 38 36 32 28 25 23 19 17 17 13 11 12 17 19 21 22 22 21 21 21 22 23 24 29 31 31 28 36 43 44 41 39 43 39 32 31 31 43 45 39
38 34 32 35 36 34 31 29 26 23 21 17 16 13 11 15 16 18 19 20 20 20 21 22 23 24 26 26 24 29 34 42 42 45 44 39 33 32 34 42 40 41 38
44 39 36 37 35 35 31 34 31 29 28 24 21 20 17 17 12 14 15 16 16 16 19 21 24 25 22 23 25 27 31 39 47 45 35 34 31 37 40 37 37 38 39
45 41 43 41 38 33 40 32 35 35 34 32 29 30 24 21 10 16 14 14 14 13 11 14 15 18 21 19 22 25 37 40 43 44 43 38 34 33 31 33 37 37 39
50 49 46 48 43 41 40 39 38 38 38 37 35 35 35 31 19 14 16 14 16 17 9 4 4 8 12 20 26 26 33 40 44 42 44 37 34 29 31 33 33 36 35
53 53 57 52 52 50 49 48 43 42 41 36 39 38 36 41 24 26 20 22 21 20 16 7 7 10 15 20 25 27 29 33 32 36 40 41 34 31 31 31 30 31 32
56 56 58 61 57 60 64 58 55 51 46 43 43 42 43 43 33 28 29 27 28 28 23 22 18 13 22 23 25 26 25 29 35 35 32 30 23 33 29 28 29 30 29
64 61 65 64 70 71 69 68 63 56 52 52 53 50 51 48 45 40 38 35 36 32 29 29 25 17 18 28 31 31 30 31 33 33 30 26 19 20 25 27 27 25 26
64 69 69 72 67 71 68 67 61 60 60 58 52 56 61 56 56 50 48 43 40 42 36 37 33 28 20 26 34 35 35 34 33 33 33 28 22 16 14 18 23 24 25
66 72 76 76 76 70 71 71 68 70 66 61 61 65 66 60 61 56 52 51 50 48 44 43 46 39 28 26 37 38 37 35 37 34 30 26 24 20 14 11 10 15 19
68 72 76 75 79 75 72 74 72 72 70 66 65 68 67 65 63 62 62 61 60 56 53 47 50 50 39 30 37 42 41 40 38 35 33 30 26 24 20 15 10 6 6
70 71 76 78 80 79 79 81 81 81 79 76 75 71 79 79 69 69 68 65 70 66 58 53 63 65 55 46 40 45 41 41 39 38 37 34 32 28 24 18 13 8 4
68 75 78 82 82 81 81 82 82 80 80 81 77 80 81 80 77 81 79 74 73 72 66 70 60 74 62 54 48 49 38 40 46 43 43 40 36 31 26 21 16 11 8
70 73 80 85 86 84 81 80 81 80 83 87 86 85 88 85 76 85 87 82 76 79 76 76 72 84 80 63 62 46 25 27 49 50 48 44 41 36 30 24 20 15 11
72 65 72 79 86 86 82 84 87 89 90 88 83 80 83 85 84 86 88 90 84 81 85 81 79 76 80 76 67 66 60 31 34 31 52 49 45 43 35 30 25 20 16
59 66 65 71 80 84 84 86 87 89 89 89 84 77 76 76 86 88 90 93 92 88 86 89 91 86 90 85 77 68 77 52 41 34 38 59 57 50 41 35 30 25 20
53 59 64 64 70 78 83 87 89 90 88 88 88 86 81 78 80 89 93 95 92 90 90 92 84 90 92 94 86 76 79 81 66 51 35 37 48 48 45 39 35 29 23
Wind_Direction_500mb
157 154 144 143 131 130 130 108 89 90 88 93 99 103 102 104 107 103 99 96 107 103 91 89 85 81 80 82 85 85 84 79 78 80 85 91 89 86 87 92 88 80 83
155 155 151 156 135 141 126 113 94 84 85 85 86 91 97 100 100 99 106 103 117 98 95 88 86 84 86 89 89 86 80 73 66 74 79 82 80 80 82 78 78 77 76
159 156 151 151 143 146 133 98 83 83 86 89 91 90 93 96 102 102 110 114 122 104 98 88 83 85 91 94 92 89 83 79 75 73 74 75 74 75 76 76 76 74 74
156 158 154 154 149 148 142 107 96 90 88 87 88 86 87 92 98 108 116 118 116 100 94 89 87 92 96 97 97 93 92 99 90 84 79 77 80 74 75 75 75 75 73
166 168 162 158 157 154 154 130 111 104 101 94 86 81 84 88 93 100 113 120 96 91 95 95 96 99 99 101 98 89 85 83 89 86 82 75 74 81 84 85 86 87 87
167 189 172 170 165 163 161 144 118 115 109 97 84 79 80 85 91 97 101 98 95 100 100 103 105 106 106 107 102 96 96 95 95 97 96 98 93 87 86 89 92 90 87
160 189 182 177 171 170 168 158 142 136 132 116 98 89 87 88 94 100 103 101 99 100 103 103 103 107 109 112 112 110 112 115 113 108 105 100 96 84 79 80 76 78 78
175 190 187 181 180 177 173 174 167 157 152 140 122 105 100 94 91 93 97 97 100 103 104 105 108 111 113 115 117 115 104 103 100 92 85 81 78 85 85 84 86 80 74
186 207 189 186 184 184 185 185 180 172 164 159 143 119 103 95 92 96 99 101 103 105 106 106 110 116 119 123 123 126 121 103 103 99 95 91 97 96 95 91 80 72 66
185 186 190 191 192 192 193 192 188 185 177 177 162 143 123 109 104 102 98 99 101 104 105 108 114 120 124 127 131 132 126 122 110 104 98 104 107 104 97 84 79 74 66
196 196 190 199 197 201 202 199 195 196 196 198 185 178 162 143 138 122 113 108 107 107 109 112 116 123 129 132 131 126 129 122 118 112 116 119 116 99 91 88 78 74 67
201 205 203 204 205 202 207 206 203 203 208 211 208 201 194 193 179 155 140 127 116 113 116 120 124 128 133 131 128 128 126 133 121 118 117 111 105 99 89 87 82 74 69
210 206 205 207 211 206 210 214 210 211 213 215 211 203 198 217 205 186 185 164 146 127 123 132 144 151 162 155 147 132 137 138 125 120 114 112 105 98 96 86 81 78 74
205 204 209 212 210 206 216 216 219 214 212 214 218 207 202 212 214 229 227 202 182 161 174 180 188 189 175 159 158 155 145 144 135 128 126 123 116 103 92 88 83 79 74
212 214 205 208 211 208 212 221 223 217 216 218 220 216 220 214 218 201 237 244 222 210 199 222 238 231 207 186 176 174 164 164 155 149 150 141 128 109 98 92 86 81 77
219 215 219 214 205 209 212 212 218 222 223 220 222 223 225 225 234 232 241 240 230 233 243 228 210 235 220 207 199 194 188 170 171 167 167 168 157 126 115 102 95 88 79
217 222 219 228 210 217 219 219 224 226 227 226 233 231 228 232 237 243 237 239 239 232 247 230 213 212 237 216 204 198 196 187 177 176 178 183 186 167 133 110 102 93 85
221 222 221 228 229 223 222 224 222 226 226 234 233 235 238 236 235 240 242 239 240 234 234 235 218 210 230 227 212 203 200 196 191 188 188 191 190 188 176 146 117 102 93
227 226 228 230 232 230 224 230 228 229 232 227 229 239 243 238 232 233 241 240 243 237 234 227 227 217 210 235 219 208 203 200 201 202 205 204 196 198 197 178 154 127 103
234 229 233 232 234 234 230 229 232 233 234 228 227 232 239 240 236 231 234 238 238 234 232 236 233 217 214 229 225 213 206 207 208 206 209 213 208 204 200 193 177 151 122
237 232 231 232 235 235 231 229 231 234 237 236 233 227 235 237 235 238 236 237 236 237 241 238 222 218 209 217 224 209 207 210 212 212 215 215 215 210 207 205 205 214 229
246 235 232 236 239 239 235 236 236 240 244 246 244 240 239 242 236 234 237 237 240 237 233 230 234 220 210 216 226 215 205 212 215 216 221 220 219 217 215 215 218 227 244
246 243 237 238 240 241 240 238 238 238 241 245 243 242 242 243 240 235 238 235 238 240 245 243 243 228 216 223 220 217 197 212 214 218 222 226 225 224 221 220 224 233 246
251 256 247 239 238 241 240 239 239 241 241 250 251 248 247 245 239 236 236 233 234 242 241 242 248 243 231 228 218 220 223 217 192 200 219 224 228 229 225 225 229 235 244
248 251 251 247 241 240 241 241 242 243 245 249 251 251 250 248 239 236 234 234 233 237 240 241 246 240 232 230 235 229 222 220 218 211 206 217 223 227 226 228 232 238 249
251 248 250 250 246 241 241 242 243 245 246 246 250 251 252 250 244 237 235 234 236 238 239 237 236 239 232 232 231 237 232 222 218 215 211 214 224 225 228 229 233 238 248
Wind_Speed_850mb
30 42 33 25 32 25 19 12 18 21 23 23 24 27 27 26 26 28 43 36 30 24 21 26 32 33 34 36 38 40 41 43 37 33 30 29 33 33 33 31 34 42 40
40 38 33 27 25 24 21 15 20 21 26 27 26 27 27 27 27 31 41 32 21 23 19 28 31 32 34 39 46 49 52 51 45 39 38 40 41 40 38 38 38 38 35
36 34 32 26 27 25 19 17 19 21 25 27 28 27 26 26 27 30 38 26 19 21 22 30 31 34 40 45 48 54 56 49 38 43 46 47 49 47 47 44 43 45 46
34 32 29 28 27 25 19 17 17 18 22 23 26 26 25 23 24 27 32 26 19 22 29 30 31 35 40 45 47 49 46 36 31 39 47 45 52 51 52 53 56 56 59
27 28 29 27 27 25 21 17 16 17 18 20 25 25 23 22 21 21 22 21 21 26 29 29 32 36 40 46 49 55 44 38 46 56 54 53 50 50 52 51 51 52 52
32 29 28 28 27 25 22 16 15 14 15 18 21 23 23 22 20 20 19 18 21 24 26 28 31 34 39 45 54 49 35 31 46 49 54 57 54 42 39 43 39 40 40
32 27 30 30 28 26 23 18 15 13 14 15 17 19 21 20 19 19 18 20 21 22 24 26 29 31 36 41 49 47 31 31 39 38 40 42 37 38 42 43 54 55 55
36 35 34 34 31 27 23 20 17 14 15 15 14 16 18 19 18 18 17 19 21 22 23 25 27 31 36 38 40 40 29 32 39 45 48 46 45 46 45 47 45 40 45
32 34 38 36 33 28 25 23 20 16 17 15 13 12 15 18 19 20 20 20 20 21 21 23 26 28 30 34 38 39 32 32 46 49 48 47 44 44 39 37 41 43 40
34 29 39 38 36 32 28 25 23 19 17 17 13 11 12 17 19 21 22 22 21 21 21 22 23 24 29 31 31 28 36 43 44 41 39 43 39 32 31 31 43 45 39
38 34 32 35 36 34 31 29 26 23 21 17 16 13 11 15 16 18 19 20 20 20 21 22 23 24 26 26 24 29 34 42 42 45 44 39 33 32 34 42 40 41 38
44 39 36 37 35 35 31 34 31 29 28 24 21 20 17 17 12 14 15 16 16 16 19 21 24 25 22 23 25 27 31 39 47 45 35 34 31 37 40 37 37 38 39
45 41 43 41 38 33 40 32 35 35 34 32 29 30 24 21 10 16 14 14 14 13 11 14 15 18 21 19 22 25 37 40 43 44 43 38 34 33 31 33 37 37 39
50 49 46 48 43 41 40 39 38 38 38 37 35 35 35 31 19 14 16 14 16 17 9 4 4 8 12 20 26 26 33 40 44 42 44 37 34 29 31 33 33 36 35
53 53 57 52 52 50 49 48 43 42 41 36 39 38 36 41 24 26 20 22 21 20 16 7 7 10 15 20 25 27 29 33 32 36 40 41 34 31 31 31 30 31 32
56 56 58 61 57 60 64 58 55 51 46 43 43 42 43 43 33 28 29 27 28 28 23 22 18 13 22 23 25 26 25 29 35 35 32 30 23 33 29 28 29 30 29
64 61 65 64 70 71 69 68 63 56 52 52 53 50 51 48 45 40 38 35 36 32 29 29 25 17 18 28 31 31 30 31 33 33 30 26 19 20 25 27 27 25 26
64 69 69 72 67 71 68 67 61 60 60 58 52 56 61 56 56 50 48 43 40 42 36 37 33 28 20 26 34 35 35 34 33 33 33 28 22 16 14 18 23 24 25
66 72 76 76 76 70 71 71 68 70 66 61 61 65 66 60 61 56 52 51 50 48 44 43 46 39 28 26 37 38 37 35 37 34 30 26 24 20 14 11 10 15 19
68 72 76 75 79 75 72 74 72 72 70 66 65 68 67 65 63 62 62 61 60 56 53 47 50 50 39 30 37 42 41 40 38 35 33 30 26 24 20 15 10 6 6
70 71 76 78 80 79 79 81 81 81 79 76 75 71 79 79 69 69 68 65 70 66 58 53 63 65 55 46 40 45 41 41 39 38 37 34 32 28 24 18 13 8 4
68 75 78 82 82 81 81 82 82 80 80 81 77 80 81 80 77 81 79 74 73 72 66 70 60 74 62 54 48 49 38 40 46 43 43 40 36 31 26 21 16 11 8
70 73 80 85 86 84 81 80 81 80 83 87 86 85 88 85 76 85 87 82 76 79 76 76 72 84 80 63 62 46 25 27 49 50 48 44 41 36 30 24 20 15 11
72 65 72 79 86 86 82 84 87 89 90 88 83 80 83 85 84 86 88 90 84 81 85 81 79 76 80 76 67 66 60 31 34 31 52 49 45 43 35 30 25 20 16
59 66 65 71 80 84 84 86 87 89 89 89 84 77 76 76 86 88 90 93 92 88 86 89 91 86 90 85 77 68 77 52 41 34 38 59 57 50 41 35 30 25 20
53 59 64 64 70 78 83 87 89 90 88 88 88 86 81 78 80 89 93 95 92 90 90 92 84 90 92 94 86 76 79 81 66 51 35 37 48 48 45 39 35 29 23
Wind_Direction_850mb
157 154 144 143 131 130 130 108 89 90 88 93 99 103 102 104 107 103 99 96 107 103 91 89 85 81 80 82 85 85 84 79 78 80 85 91 89 86 87 92 88 80 83
155 155 151 156 135 141 126 113 94 84 85 85 86 91 97 100 100 99 106 103 117 98 95 88 86 84 86 89 89 86 80 73 66 74 79 82 80 80 82 78 78 77 76
159 156 151 151 143 146 133 98 83 83 86 89 91 90 93 96 102 102 110 114 122 104 98 88 83 85 91 94 92 89 83 79 75 73 74 75 74 75 76 76 76 74 74
156 158 154 154 149 148 142 107 96 90 88 87 88 86 87 92 98 108 116 118 116 100 94 89 87 92 96 97 97 93 92 99 90 84 79 77 80 74 75 75 75 75 73
166 168 162 158 157 154 154 130 111 104 101 94 86 81 84 88 93 100 113 120 96 91 95 95 96 99 99 101 98 89 85 83 89 86 82 75 74 81 84 85 86 87 87
167 189 172 170 165 163 161 144 118 115 109 97 84 79 80 85 91 97 101 98 95 100 100 103 105 106 106 107 102 96 96 95 95 97 96 98 93 87 86 89 92 90 87
160 189 182 177 171 170 168 158 142 136 132 116 98 89 87 88 94 100 103 101 99 100 103 103 103 107 109 112 112 110 112 115 113 108 105 100 96 84 79 80 76 78 78
175 190 187 181 180 177 173 174 167 157 152 140 122 105 100 94 91 93 97 97 100 103 104 105 108 111 113 115 117 115 104 103 100 92 85 81 78 85 85 84 86 80 74
186 207 189 186 184 184 185 185 180 172 164 159 143 119 103 95 92 96 99 101 103 105 106 106 110 116 119 123 123 126 121 103 103 99 95 91 97 96 95 91 80 72 66
185 186 190 191 192 192 193 192 188 185 177 177 162 143 123 109 104 102 98 99 101 104 105 108 114 120 124 127 131 132 126 122 110 104 98 104 107 104 97 84 79 74 66
196 196 190 199 197 201 202 199 195 196 196 198 185 178 162 143 138 122 113 108 107 107 109 112 116 123 129 132 131 126 129 122 118 112 116 119 116 99 91 88 78 74 67
201 205 203 204 205 202 207 206 203 203 208 211 208 201 194 193 179 155 140 127 116 113 116 120 124 128 133 131 128 128 126 133 121 118 117 111 105 99 89 87 82 74 69
210 206 205 207 211 206 210 214 210 211 213 215 211 203 198 217 205 186 185 164 146 127 123 132 144 151 162 155 147 132 137 138 125 120 114 112 105 98 96 86 81 78 74
205 204 209 212 210 206 216 216 219 214 212 214 218 207 202 212 214 229 227 202 182 161 174 180 188 189 175 159 158 155 145 144 135 128 126 123 116 103 92 88 83 79 74
212 214 205 208 211 208 212 221 223 217 216 218 220 216 220 214 218 201 237 244 222 210 199 222 238 231 207 186 176 174 164 164 155 149 150 141 128 109 98 92 86 81 77
219 215 219 214 205 209 212 212 218 222 223 220 222 223 225 225 234 232 241 240 230 233 243 228 210 235 220 207 199 194 188 170 171 167 167 168 157 126 115 102 95 88 79
217 222 219 228 210 217 219 219 224 226 227 226 233 231 228 232 237 243 237 239 239 232 247 230 213 212 237 216 204 198 196 187 177 176 178 183 186 167 133 110 102 93 85
221 222 221 228 229 223 222 224 222 226 226 234 233 235 238 236 235 240 242 239 240 234 234 235 218 210 230 227 212 203 200 196 191 188 188 191 190 188 176 146 117 102 93
227 226 228 230 232 230 224 230 228 229 232 227 229 239 243 238 232 233 241 240 243 237 234 227 227 217 210 235 219 208 203 200 201 202 205 204 196 198 197 178 154 127 103
234 229 233 232 234 234 230 229 232 233 234 228 227 232 239 240 236 231 234 238 238 234 232 236 233 217 214 229 225 213 206 207 208 206 209 213 208 204 200 193 177 151 122
237 232 231 232 235 235 231 229 231 234 237 236 233 227 235 237 235 238 236 237 236 237 241 238 222 218 209 217 224 209 207 210 212 212 215 215 215 210 207 205 205 214 229
246 235 232 236 239 239 235 236 236 240 244 246 244 240 239 242 236 234 237 237 240 237 233 230 234 220 210 216 226 215 205 212 215 216 221 220 219 217 215 215 218 227 244
246 243 237 238 240 241 240 238 238 238 241 245 243 242 242 243 240 235 238 235 238 240 245 243 243 228 216 223 220 217 197 212 214 218 222 226 225 224 221 220 224 233 246
251 256 247 239 238 241 240 239 239 241 241 250 251 248 247 245 239 236 236 233 234 242 241 242 248 243 231 228 218 220 223 217 192 200 219 224 228 229 225 225 229 235 244
248 251 251 247 241 240 241 241 242 243 245 249 251 251 250 248 239 236 234 234 233 237 240 241 246 240 232 230 235 229 222 220 218 211 206 217 223 227 226 228 232 238 249
251 248 250 250 246 241 241 242 243 245 246 246 250 251 252 250 244 237 235 234 236 238 239 237 236 239 232 232 231 237 232 222 218 215 211 214 224 225 228 229 233 238 248